WXM80 ListenWXM80 Stop

You find our weather info also at:

UK Metoffice

WeatherCloud

Weather Underground

Northeastern Weather Network

AWEKAS

Citizen Weather Observer Program (CWOP)

HAMweather, WeatherForYou, PWS Weather


Weather Underground History page Text

Daily Summary for November 14, 2016 Units:  English    Metric   Both
« Previous Day
Next Day »
Daily Weekly Monthly Yearly Custom
  High: Low: Average:
Temperature: 64.0 °F 41.4 °F 52.3 °F
Dew Point: 40.8 °F 24.7 °F 30.7 °F
Humidity: 61 % 23 % 45 %
Wind Speed: 6.9 mph 0.0 mph 1.9 mph
Wind Gust: 11.5 mph - -
Wind:- - SW
Pressure: 30.02 in 29.95 in -
Precipitation: 0.00 in    
Historical Graphs
 
 
Tabular Data for November 14, 2016
Time Temperature Dew Point Pressure Wind Wind Speed Wind Gust Humidity Rainfall Rate (Hourly)
00:02 48.0 °F 29.2 °F 30.00 in WSW 3.3 mph 4.0 mph 48 % 0.00 in
00:07 48.0 °F 28.7 °F 30.00 in SW 3.9 mph 11.5 mph 47 % 0.00 in
00:12 48.2 °F 28.4 °F 30.00 in WSW 2.7 mph 8.1 mph 46 % 0.00 in
00:17 48.4 °F 28.5 °F 30.00 in WSW 4.5 mph 10.4 mph 46 % 0.00 in
00:22 48.5 °F 28.6 °F 30.00 in SW 3.4 mph 10.4 mph 46 % 0.00 in
00:27 48.7 °F 28.3 °F 30.00 in SW 3.6 mph 6.0 mph 45 % 0.00 in
00:32 48.7 °F 28.3 °F 30.00 in SW 6.0 mph 8.1 mph 45 % 0.00 in
00:38 48.8 °F 28.4 °F 30.00 in SW 3.1 mph 5.8 mph 45 % 0.00 in
00:43 48.8 °F 28.4 °F 30.01 in WSW 3.0 mph 8.0 mph 45 % 0.00 in
00:48 48.8 °F 28.4 °F 30.01 in WNW 2.9 mph 4.6 mph 45 % 0.00 in
00:53 48.9 °F 28.5 °F 30.01 in WSW 2.7 mph 3.5 mph 45 % 0.00 in
00:58 48.9 °F 28.5 °F 30.01 in WSW 2.6 mph 3.5 mph 45 % 0.00 in
01:03 48.9 °F 28.5 °F 30.01 in SW 2.3 mph 5.8 mph 45 % 0.00 in
01:08 48.8 °F 28.9 °F 30.01 in SSW 3.7 mph 5.8 mph 46 % 0.00 in
01:13 48.7 °F 28.3 °F 30.00 in WSW 3.2 mph 5.8 mph 45 % 0.00 in
01:18 48.7 °F 28.3 °F 30.01 in WSW 1.8 mph 3.5 mph 45 % 0.00 in
01:23 48.5 °F 28.6 °F 30.00 in SW 2.5 mph 3.5 mph 46 % 0.00 in
01:29 48.4 °F 28.5 °F 30.00 in WSW 2.2 mph 5.8 mph 46 % 0.00 in
01:34 48.3 °F 29.0 °F 30.01 in SW 4.0 mph 6.9 mph 47 % 0.00 in
01:39 48.1 °F 28.8 °F 30.00 in SW 2.5 mph 3.5 mph 47 % 0.00 in
01:44 47.9 °F 28.6 °F 30.00 in SW 2.7 mph 3.5 mph 47 % 0.00 in
01:49 47.7 °F 28.4 °F 30.00 in SW 1.9 mph 3.5 mph 47 % 0.00 in
01:54 47.5 °F 28.8 °F 30.01 in SW 2.6 mph 3.5 mph 48 % 0.00 in
01:59 47.3 °F 28.1 °F 30.00 in WSW 2.6 mph 5.0 mph 47 % 0.00 in
02:04 47.1 °F 27.9 °F 30.00 in WSW 3.3 mph 5.8 mph 47 % 0.00 in
02:09 46.9 °F 28.2 °F 30.01 in SW 3.0 mph 5.8 mph 48 % 0.00 in
02:14 46.8 °F 28.1 °F 30.01 in WSW 3.3 mph 6.0 mph 48 % 0.00 in
02:20 46.7 °F 28.0 °F 30.01 in WSW 3.3 mph 5.8 mph 48 % 0.00 in
02:25 46.5 °F 27.8 °F 30.01 in SW 3.5 mph 6.0 mph 48 % 0.00 in
02:30 46.4 °F 27.8 °F 30.01 in SW 2.3 mph 4.6 mph 48 % 0.00 in
02:35 46.3 °F 27.7 °F 30.01 in WSW 3.6 mph 4.0 mph 48 % 0.00 in
02:40 46.3 °F 27.7 °F 30.01 in SW 2.7 mph 5.8 mph 48 % 0.00 in
02:45 46.2 °F 27.6 °F 30.01 in SSW 3.3 mph 6.0 mph 48 % 0.00 in
02:50 46.2 °F 27.6 °F 30.01 in WSW 4.4 mph 5.0 mph 48 % 0.00 in
02:55 46.1 °F 27.5 °F 30.00 in SW 3.0 mph 7.0 mph 48 % 0.00 in
03:00 46.1 °F 27.5 °F 30.01 in SW 3.0 mph 6.9 mph 48 % 0.00 in
03:05 46.0 °F 27.4 °F 30.00 in WSW 3.2 mph 5.8 mph 48 % 0.00 in
03:10 46.0 °F 27.4 °F 30.01 in WSW 2.9 mph 4.6 mph 48 % 0.00 in
03:15 45.9 °F 27.3 °F 30.00 in SW 2.7 mph 3.5 mph 48 % 0.00 in
03:20 45.8 °F 27.2 °F 30.00 in SSW 2.1 mph 5.8 mph 48 % 0.00 in
03:31 45.5 °F 27.4 °F 30.00 in SW 1.9 mph 3.5 mph 49 % 0.00 in
03:36 45.4 °F 27.3 °F 29.99 in WSW 2.6 mph 4.6 mph 49 % 0.00 in
03:41 45.2 °F 27.6 °F 30.00 in South 2.5 mph 4.6 mph 50 % 0.00 in
03:46 45.1 °F 27.6 °F 29.99 in WNW 0.8 mph 2.3 mph 50 % 0.00 in
03:51 44.9 °F 27.4 °F 29.99 in SW 2.3 mph 4.6 mph 50 % 0.00 in
03:56 44.8 °F 27.8 °F 30.00 in WSW 0.7 mph 2.3 mph 51 % 0.00 in
04:01 44.7 °F 27.7 °F 29.99 in SSW 1.2 mph 3.5 mph 51 % 0.00 in
04:06 44.5 °F 27.5 °F 30.00 in SSW 2.2 mph 4.6 mph 51 % 0.00 in
04:11 44.3 °F 27.8 °F 30.00 in SW 2.5 mph 4.0 mph 52 % 0.00 in
04:16 44.2 °F 27.7 °F 30.00 in SW 1.8 mph 3.5 mph 52 % 0.00 in
04:22 44.0 °F 27.5 °F 30.00 in SW 1.7 mph 2.3 mph 52 % 0.00 in
04:27 43.9 °F 27.4 °F 30.00 in SW 1.0 mph 2.3 mph 52 % 0.00 in
04:32 43.8 °F 27.3 °F 30.00 in SW 0.2 mph 3.5 mph 52 % 0.00 in
04:37 43.7 °F 27.7 °F 30.00 in WSW 2.2 mph 4.6 mph 53 % 0.00 in
04:42 43.5 °F 27.0 °F 30.00 in SSW 2.3 mph 3.5 mph 52 % 0.00 in
04:47 43.4 °F 26.9 °F 29.99 in SSW 1.4 mph 3.5 mph 52 % 0.00 in
04:52 43.3 °F 26.8 °F 30.00 in SW 0.7 mph 2.3 mph 52 % 0.00 in
04:57 43.2 °F 27.2 °F 30.00 in SW 0.6 mph 2.3 mph 53 % 0.00 in
05:02 43.1 °F 27.1 °F 29.99 in SSW 0.5 mph 2.3 mph 53 % 0.00 in
05:07 43.1 °F 27.1 °F 29.99 in Calm   2.3 mph 53 % 0.00 in
05:13 43.0 °F 27.0 °F 29.99 in WSW 2.6 mph 4.6 mph 53 % 0.00 in
05:18 42.9 °F 26.9 °F 29.98 in SW 0.8 mph 2.3 mph 53 % 0.00 in
05:23 43.0 °F 27.0 °F 29.98 in SSW 2.2 mph 5.0 mph 53 % 0.00 in
05:28 43.0 °F 27.5 °F 29.99 in WSW 0.3 mph 5.8 mph 54 % 0.00 in
05:33 43.1 °F 27.6 °F 29.99 in Calm   1.2 mph 54 % 0.00 in
05:38 43.1 °F 28.0 °F 29.99 in SW 0.6 mph 2.3 mph 55 % 0.00 in
05:43 43.1 °F 27.6 °F 29.98 in WSW 3.3 mph 3.5 mph 54 % 0.00 in
05:48 43.2 °F 27.7 °F 29.98 in SW 1.2 mph 2.3 mph 54 % 0.00 in
05:53 43.2 °F 27.7 °F 29.98 in SW 1.3 mph 2.3 mph 54 % 0.00 in
05:58 43.2 °F 27.7 °F 29.98 in SW 0.2 mph 1.2 mph 54 % 0.00 in
06:04 43.1 °F 27.6 °F 29.98 in Calm   1.2 mph 54 % 0.00 in
06:09 43.1 °F 28.0 °F 29.98 in Calm     55 % 0.00 in
06:14 42.9 °F 27.8 °F 29.98 in Calm     55 % 0.00 in
06:19 42.8 °F 28.2 °F 29.98 in Calm     56 % 0.00 in
06:24 42.6 °F 28.4 °F 29.98 in SW 1.5 mph 2.3 mph 57 % 0.00 in
06:29 42.3 °F 28.1 °F 29.98 in SW 0.1 mph 1.2 mph 57 % 0.00 in
06:34 42.1 °F 27.9 °F 29.99 in SW 1.6 mph 2.3 mph 57 % 0.00 in
06:39 41.8 °F 28.1 °F 29.99 in SW 0.7 mph 3.0 mph 58 % 0.00 in
06:44 41.6 °F 27.9 °F 29.98 in SW 1.9 mph 3.5 mph 58 % 0.00 in
06:49 41.5 °F 28.2 °F 29.99 in SW 1.6 mph 2.3 mph 59 % 0.00 in
06:55 41.4 °F 28.1 °F 29.99 in SW 1.8 mph 3.5 mph 59 % 0.00 in
07:00 41.4 °F 28.1 °F 29.99 in SW 2.6 mph 4.6 mph 59 % 0.00 in
07:10 41.6 °F 27.9 °F 29.99 in SSW 2.3 mph 3.5 mph 58 % 0.00 in
07:15 41.8 °F 28.1 °F 29.99 in SSW 2.0 mph 3.5 mph 58 % 0.00 in
07:20 41.9 °F 27.8 °F 29.99 in WSW 2.1 mph 3.5 mph 57 % 0.00 in
07:25 42.1 °F 27.9 °F 30.00 in WSW 3.1 mph 4.6 mph 57 % 0.00 in
07:30 42.3 °F 27.7 °F 30.00 in SW 3.0 mph 7.0 mph 56 % 0.00 in
07:35 42.6 °F 27.5 °F 30.00 in SW 2.0 mph 5.8 mph 55 % 0.00 in
07:40 42.9 °F 27.8 °F 30.00 in SW 1.8 mph 3.5 mph 55 % 0.00 in
07:45 43.1 °F 28.0 °F 30.00 in SW 2.2 mph 4.0 mph 55 % 0.00 in
07:51 43.4 °F 27.4 °F 30.00 in West 1.6 mph 3.5 mph 53 % 0.00 in
07:56 43.9 °F 27.4 °F 30.00 in WSW 2.1 mph 3.5 mph 52 % 0.00 in
08:01 44.2 °F 27.7 °F 30.00 in West 2.4 mph 3.5 mph 52 % 0.00 in
08:06 44.7 °F 27.7 °F 30.00 in WSW 3.9 mph 6.9 mph 51 % 0.00 in
08:11 45.2 °F 28.1 °F 30.00 in SSW 2.9 mph 5.8 mph 51 % 0.00 in
08:16 45.6 °F 28.5 °F 30.00 in West 2.2 mph 8.1 mph 51 % 0.00 in
08:21 46.1 °F 28.5 °F 30.00 in SW 3.2 mph 8.1 mph 50 % 0.00 in
08:26 46.6 °F 28.9 °F 30.01 in SW 4.5 mph 6.9 mph 50 % 0.00 in
08:31 47.0 °F 29.3 °F 30.01 in SSW 2.5 mph 4.6 mph 50 % 0.00 in
08:36 47.6 °F 28.9 °F 30.00 in WSW 4.1 mph 11.5 mph 48 % 0.00 in
08:41 48.2 °F 28.9 °F 30.00 in WSW 5.1 mph 8.1 mph 47 % 0.00 in
08:46 48.8 °F 29.4 °F 30.00 in WSW 2.9 mph 3.5 mph 47 % 0.00 in
08:52 49.5 °F 29.0 °F 30.00 in SW 6.9 mph 10.4 mph 45 % 0.00 in
08:57 50.2 °F 29.1 °F 30.00 in WSW 4.5 mph 6.9 mph 44 % 0.00 in
09:02 50.8 °F 29.6 °F 30.00 in WSW 6.7 mph 11.5 mph 44 % 0.00 in
09:07 51.5 °F 29.7 °F 30.00 in WSW 5.0 mph 6.9 mph 43 % 0.00 in
09:12 51.8 °F 30.0 °F 30.00 in West 3.4 mph 5.8 mph 43 % 0.00 in
09:17 52.2 °F 30.4 °F 30.00 in WSW 6.7 mph 9.2 mph 43 % 0.00 in
09:22 52.5 °F 29.5 °F 30.01 in WSW 3.9 mph 8.1 mph 41 % 0.00 in
09:27 52.8 °F 30.3 °F 30.01 in SW 0.7 mph 3.5 mph 42 % 0.00 in
09:32 53.2 °F 30.1 °F 30.01 in West 4.9 mph 8.1 mph 41 % 0.00 in
09:37 53.7 °F 29.9 °F 30.01 in WSW 1.3 mph 5.8 mph 40 % 0.00 in
09:42 54.1 °F 29.7 °F 30.01 in SW 4.1 mph 8.0 mph 39 % 0.00 in
09:48 54.4 °F 29.9 °F 30.01 in WNW 4.4 mph 8.1 mph 39 % 0.00 in
09:53 54.7 °F 29.6 °F 30.01 in WSW 3.5 mph 5.0 mph 38 % 0.00 in
09:58 55.0 °F 30.5 °F 30.00 in WSW 2.9 mph 7.0 mph 39 % 0.00 in
10:03 55.3 °F 29.4 °F 30.01 in West 3.9 mph 9.2 mph 37 % 0.00 in
10:08 55.7 °F 29.8 °F 30.01 in WSW 4.4 mph 9.2 mph 37 % 0.00 in
10:13 55.9 °F 30.0 °F 30.01 in West 3.9 mph 5.0 mph 37 % 0.00 in
10:18 56.1 °F 29.5 °F 30.01 in SW 4.5 mph 8.1 mph 36 % 0.00 in
10:23 56.3 °F 29.7 °F 30.01 in WSW 2.9 mph 5.0 mph 36 % 0.00 in
10:28 56.6 °F 29.2 °F 30.01 in WNW 1.4 mph 4.6 mph 35 % 0.00 in
10:33 56.9 °F 28.8 °F 30.01 in WNW 1.8 mph 3.5 mph 34 % 0.00 in
10:39 57.1 °F 27.5 °F 30.02 in SW 3.0 mph 5.8 mph 32 % 0.00 in
10:44 57.3 °F 29.1 °F 30.01 in SSW 5.5 mph 8.1 mph 34 % 0.00 in
10:54 57.6 °F 28.7 °F 30.01 in WSW 1.7 mph 4.6 mph 33 % 0.00 in
10:59 57.7 °F 28.0 °F 30.00 in WNW 1.4 mph 5.8 mph 32 % 0.00 in
11:04 57.7 °F 27.2 °F 30.00 in WNW 3.0 mph 8.0 mph 31 % 0.00 in
11:09 57.8 °F 26.5 °F 30.00 in SW 2.2 mph 6.9 mph 30 % 0.00 in
11:14 57.7 °F 26.4 °F 29.99 in West 5.6 mph 9.2 mph 30 % 0.00 in
11:19 57.6 °F 26.4 °F 29.99 in WSW 3.1 mph 5.0 mph 30 % 0.00 in
11:25 57.6 °F 27.2 °F 29.99 in WNW 2.3 mph 4.6 mph 31 % 0.00 in
11:30 57.5 °F 27.1 °F 29.99 in West 3.6 mph 8.1 mph 31 % 0.00 in
11:35 57.5 °F 27.1 °F 29.98 in West 1.1 mph 5.0 mph 31 % 0.00 in
11:40 57.6 °F 27.2 °F 29.98 in WNW 2.1 mph 5.8 mph 31 % 0.00 in
11:45 57.6 °F 26.4 °F 29.97 in WSW 3.0 mph 8.1 mph 30 % 0.00 in
11:50 57.7 °F 26.4 °F 29.97 in West 1.0 mph 5.0 mph 30 % 0.00 in
11:55 57.8 °F 25.8 °F 29.97 in WSW 3.0 mph 9.0 mph 29 % 0.00 in
12:00 58.1 °F 26.0 °F 29.97 in SW 1.8 mph 4.0 mph 29 % 0.00 in
12:05 58.2 °F 26.9 °F 29.96 in WSW 1.4 mph 3.5 mph 30 % 0.00 in
12:10 58.4 °F 26.2 °F 29.97 in WSW 2.3 mph 6.0 mph 29 % 0.00 in
12:15 58.5 °F 25.5 °F 29.96 in WSW 2.0 mph 3.5 mph 28 % 0.00 in
12:21 58.6 °F 26.4 °F 29.96 in WSW 2.0 mph 3.5 mph 29 % 0.00 in
12:26 58.8 °F 25.7 °F 29.96 in SW 0.5 mph 3.0 mph 28 % 0.00 in
12:31 59.0 °F 25.9 °F 29.96 in SW 2.2 mph 3.5 mph 28 % 0.00 in
12:36 59.2 °F 26.1 °F 29.96 in WSW 0.9 mph 4.6 mph 28 % 0.00 in
12:41 59.4 °F 26.2 °F 29.96 in SW 3.0 mph 4.6 mph 28 % 0.00 in
12:46 59.5 °F 26.3 °F 29.96 in WNW 4.1 mph 4.1 mph 28 % 0.00 in
12:51 59.8 °F 26.6 °F 29.95 in WSW 4.7 mph 6.9 mph 28 % 0.00 in
12:56 60.0 °F 25.9 °F 29.96 in WSW 2.0 mph 4.0 mph 27 % 0.00 in
13:01 60.3 °F 25.2 °F 29.96 in West 3.4 mph 4.6 mph 26 % 0.00 in
13:06 60.4 °F 26.2 °F 29.96 in West 1.7 mph 3.5 mph 27 % 0.00 in
13:12 60.6 °F 25.5 °F 29.96 in West 1.5 mph 4.6 mph 26 % 0.00 in
13:17 60.9 °F 26.7 °F 29.95 in West 1.2 mph 3.5 mph 27 % 0.00 in
13:27 61.9 °F 25.7 °F 29.95 in WSW 1.7 mph 6.9 mph 25 % 0.00 in
13:32 62.4 °F 26.1 °F 29.95 in WSW 4.0 mph 4.6 mph 25 % 0.00 in
13:37 62.8 °F 25.4 °F 29.95 in West 3.4 mph 5.8 mph 24 % 0.00 in
13:42 63.1 °F 24.7 °F 29.95 in WSW 3.9 mph 6.9 mph 23 % 0.00 in
13:47 63.4 °F 25.9 °F 29.95 in West 0.7 mph 3.5 mph 24 % 0.00 in
13:52 63.7 °F 26.2 °F 29.95 in WNW 2.3 mph 4.6 mph 24 % 0.00 in
13:57 63.9 °F 33.4 °F 29.95 in SSW 3.3 mph 4.6 mph 32 % 0.00 in
14:02 64.0 °F 35.8 °F 29.95 in WSW 1.8 mph 5.0 mph 35 % 0.00 in
14:07 63.9 °F 37.1 °F 29.95 in SSW 1.8 mph 3.5 mph 37 % 0.00 in
14:12 63.7 °F 37.6 °F 29.96 in South 4.2 mph 4.6 mph 38 % 0.00 in
14:18 63.4 °F 37.3 °F 29.96 in South 1.6 mph 6.9 mph 38 % 0.00 in
14:23 63.1 °F 37.7 °F 29.96 in South 3.0 mph 4.6 mph 39 % 0.00 in
14:28 62.7 °F 37.4 °F 29.96 in SSE 0.7 mph 4.6 mph 39 % 0.00 in
14:33 62.2 °F 36.9 °F 29.96 in SSW 2.6 mph 4.0 mph 39 % 0.00 in
14:38 61.8 °F 36.6 °F 29.97 in SSW 2.5 mph 3.5 mph 39 % 0.00 in
14:43 61.4 °F 36.2 °F 29.97 in SW 0.4 mph 2.3 mph 39 % 0.00 in
14:48 61.2 °F 34.7 °F 29.97 in SW 3.5 mph 9.2 mph 37 % 0.00 in
14:53 60.9 °F 34.4 °F 29.97 in South 0.4 mph 1.2 mph 37 % 0.00 in
14:58 60.8 °F 34.3 °F 29.97 in SW 1.8 mph 3.5 mph 37 % 0.00 in
15:03 60.7 °F 34.3 °F 29.96 in WSW 2.5 mph 4.6 mph 37 % 0.00 in
15:09 60.5 °F 34.1 °F 29.96 in SW 2.4 mph 3.5 mph 37 % 0.00 in
15:14 60.3 °F 33.9 °F 29.96 in SW 1.3 mph 3.5 mph 37 % 0.00 in
15:19 60.2 °F 33.8 °F 29.96 in SW 1.3 mph 3.5 mph 37 % 0.00 in
15:24 60.0 °F 33.6 °F 29.96 in WSW 1.1 mph 4.0 mph 37 % 0.00 in
15:29 59.8 °F 32.8 °F 29.96 in SW 2.0 mph 4.6 mph 36 % 0.00 in
15:34 59.6 °F 32.6 °F 29.97 in WSW 0.7 mph 3.5 mph 36 % 0.00 in
15:39 59.4 °F 32.4 °F 29.97 in WSW 1.6 mph 3.5 mph 36 % 0.00 in
15:44 59.2 °F 32.2 °F 29.97 in SW 1.7 mph 3.5 mph 36 % 0.00 in
15:49 59.0 °F 32.1 °F 29.97 in WSW 0.5 mph 2.0 mph 36 % 0.00 in
15:54 58.8 °F 31.2 °F 29.97 in WSW 0.4 mph 2.3 mph 35 % 0.00 in
16:00 58.6 °F 31.7 °F 29.97 in WSW 0.7 mph 2.0 mph 36 % 0.00 in
16:05 58.4 °F 32.9 °F 29.97 in WSW 0.3 mph 1.2 mph 38 % 0.00 in
16:10 58.1 °F 32.6 °F 29.97 in WSW 1.2 mph 2.3 mph 38 % 0.00 in
16:15 57.8 °F 32.3 °F 29.98 in SW 0.1 mph 1.2 mph 38 % 0.00 in
16:20 57.5 °F 30.7 °F 29.97 in SW 0.2 mph 1.2 mph 36 % 0.00 in
16:25 57.3 °F 31.2 °F 29.98 in Calm   1.0 mph 37 % 0.00 in
16:30 57.1 °F 31.0 °F 29.97 in SW 0.3 mph 2.0 mph 37 % 0.00 in
16:35 56.8 °F 30.8 °F 29.97 in Calm   2.0 mph 37 % 0.00 in
16:40 56.5 °F 29.9 °F 29.97 in Calm   3.0 mph 36 % 0.00 in
16:45 56.2 °F 29.6 °F 29.97 in Calm   1.0 mph 36 % 0.00 in
16:50 56.0 °F 30.1 °F 29.98 in SW 1.0 mph 2.0 mph 37 % 0.00 in
16:55 55.8 °F 30.5 °F 29.97 in Calm   2.0 mph 38 % 0.00 in
17:00 55.5 °F 30.3 °F 29.97 in SW 0.8 mph 2.3 mph 38 % 0.00 in
17:05 55.3 °F 31.4 °F 29.98 in SW 1.0 mph 3.0 mph 40 % 0.00 in
17:10 55.1 °F 31.8 °F 29.98 in SW 1.0 mph 3.0 mph 41 % 0.00 in
17:15 54.8 °F 32.1 °F 29.97 in SW 1.0 mph 4.0 mph 42 % 0.00 in
17:20 54.6 °F 32.5 °F 29.97 in SW 0.6 mph 3.0 mph 43 % 0.00 in
17:25 54.4 °F 33.5 °F 29.97 in SW 2.0 mph 4.0 mph 45 % 0.00 in
17:30 54.3 °F 33.4 °F 29.97 in SW 1.0 mph 5.0 mph 45 % 0.00 in
17:35 54.2 °F 33.3 °F 29.98 in SW 1.0 mph 3.0 mph 45 % 0.00 in
17:45 53.9 °F 34.1 °F 29.98 in WSW 1.4 mph 2.3 mph 47 % 0.00 in
17:50 53.8 °F 34.0 °F 29.98 in Calm   2.0 mph 47 % 0.00 in
17:55 53.7 °F 33.9 °F 29.98 in Calm   1.0 mph 47 % 0.00 in
18:00 53.7 °F 33.9 °F 29.98 in Calm     47 % 0.00 in
18:05 53.5 °F 34.8 °F 29.98 in Calm   2.0 mph 49 % 0.00 in
18:10 53.5 °F 34.2 °F 29.98 in Calm   1.0 mph 48 % 0.00 in
18:15 53.3 °F 34.6 °F 29.98 in Calm   1.0 mph 49 % 0.00 in
18:20 53.2 °F 34.0 °F 29.98 in South 1.4 mph 4.0 mph 48 % 0.00 in
18:25 53.1 °F 33.9 °F 29.98 in Calm   3.0 mph 48 % 0.00 in
18:30 53.1 °F 33.9 °F 29.99 in Calm   2.0 mph 48 % 0.00 in
18:35 53.0 °F 34.3 °F 29.99 in Calm   3.0 mph 49 % 0.00 in
18:40 53.0 °F 35.3 °F 29.99 in SSW 1.0 mph 5.0 mph 51 % 0.00 in
18:45 53.1 °F 36.4 °F 29.99 in SSW 1.0 mph 3.0 mph 53 % 0.00 in
18:50 53.1 °F 36.9 °F 29.99 in SW 2.0 mph 4.0 mph 54 % 0.00 in
18:55 53.1 °F 36.9 °F 29.99 in SW 1.0 mph 4.0 mph 54 % 0.00 in
19:00 53.2 °F 37.0 °F 30.00 in SSW 2.4 mph 3.5 mph 54 % 0.00 in
19:05 53.2 °F 37.0 °F 29.99 in SSW 1.0 mph 5.0 mph 54 % 0.00 in
19:10 53.3 °F 37.1 °F 29.99 in SW 1.0 mph 3.0 mph 54 % 0.00 in
19:15 53.3 °F 37.1 °F 29.99 in SW 1.0 mph 3.0 mph 54 % 0.00 in
19:20 53.4 °F 36.7 °F 29.99 in SW 1.0 mph 3.0 mph 53 % 0.00 in
19:25 53.5 °F 36.3 °F 29.99 in SW 2.5 mph 3.5 mph 52 % 0.00 in
19:30 53.5 °F 35.8 °F 29.99 in SSW 2.0 mph 5.0 mph 51 % 0.00 in
19:35 53.6 °F 35.4 °F 29.99 in SW 1.6 mph 3.5 mph 50 % 0.00 in
19:40 53.7 °F 35.0 °F 29.99 in SW 1.1 mph 3.5 mph 49 % 0.00 in
19:45 53.8 °F 35.1 °F 29.99 in SW 0.5 mph 2.0 mph 49 % 0.00 in
19:56 53.9 °F 34.6 °F 29.98 in SW 2.3 mph 3.5 mph 48 % 0.00 in
20:06 54.2 °F 32.7 °F 29.98 in SSW 2.1 mph 4.6 mph 44 % 0.00 in
20:11 54.4 °F 32.9 °F 29.99 in SSW 2.2 mph 3.5 mph 44 % 0.00 in
20:16 54.5 °F 33.6 °F 29.98 in SW 2.5 mph 3.5 mph 45 % 0.00 in
20:21 54.6 °F 33.1 °F 29.98 in SSW 2.3 mph 3.5 mph 44 % 0.00 in
20:26 54.7 °F 33.8 °F 29.99 in SW 2.2 mph 3.5 mph 45 % 0.00 in
20:31 54.7 °F 33.8 °F 29.99 in WSW 1.9 mph 4.6 mph 45 % 0.00 in
20:36 54.8 °F 34.4 °F 29.98 in South 1.7 mph 3.5 mph 46 % 0.00 in
20:47 54.7 °F 33.8 °F 29.98 in WSW 3.0 mph 4.6 mph 45 % 0.00 in
20:52 54.7 °F 33.8 °F 29.98 in SW 1.2 mph 3.5 mph 45 % 0.00 in
20:57 54.7 °F 34.3 °F 29.98 in SW 1.8 mph 3.5 mph 46 % 0.00 in
21:02 54.7 °F 33.8 °F 29.98 in SSW 1.6 mph 3.5 mph 45 % 0.00 in
21:07 54.7 °F 33.8 °F 29.99 in Calm     45 % 0.00 in
21:12 54.7 °F 33.8 °F 29.98 in SSW 0.3 mph 1.2 mph 45 % 0.00 in
21:17 54.7 °F 33.8 °F 29.98 in WSW 0.9 mph 2.3 mph 45 % 0.00 in
21:22 54.7 °F 34.3 °F 29.98 in SSW 0.7 mph 2.3 mph 46 % 0.00 in
21:27 54.7 °F 34.3 °F 29.98 in WSW 2.6 mph 4.6 mph 46 % 0.00 in
21:32 54.7 °F 33.8 °F 29.98 in SW 2.3 mph 4.0 mph 45 % 0.00 in
21:37 54.7 °F 33.8 °F 29.98 in SW 2.1 mph 3.5 mph 45 % 0.00 in
21:43 54.6 °F 33.7 °F 29.98 in SSW 0.5 mph 3.5 mph 45 % 0.00 in
21:48 54.6 °F 33.7 °F 29.98 in SSW 0.3 mph 3.5 mph 45 % 0.00 in
21:53 54.7 °F 33.2 °F 29.97 in SW 0.7 mph 3.5 mph 44 % 0.00 in
21:58 54.7 °F 33.2 °F 29.97 in WSW 1.4 mph 4.0 mph 44 % 0.00 in
22:03 54.8 °F 33.3 °F 29.97 in SW 0.6 mph 3.5 mph 44 % 0.00 in
22:08 54.9 °F 33.9 °F 29.97 in Calm     45 % 0.00 in
22:13 54.9 °F 33.9 °F 29.97 in SW 1.0 mph 2.0 mph 45 % 0.00 in
22:18 55.0 °F 34.6 °F 29.97 in Calm   1.2 mph 46 % 0.00 in
22:23 55.0 °F 35.1 °F 29.97 in SW 1.1 mph 2.3 mph 47 % 0.00 in
22:28 55.0 °F 35.7 °F 29.97 in WSW 0.3 mph 1.2 mph 48 % 0.00 in
22:34 55.0 °F 36.2 °F 29.97 in SW 0.1 mph 1.2 mph 49 % 0.00 in
22:39 55.0 °F 36.2 °F 29.97 in SW 0.8 mph 1.2 mph 49 % 0.00 in
22:44 55.0 °F 37.2 °F 29.97 in Calm   1.2 mph 51 % 0.00 in
22:49 55.0 °F 38.2 °F 29.97 in Calm     53 % 0.00 in
22:54 55.0 °F 38.6 °F 29.97 in Calm   1.0 mph 54 % 0.00 in
22:59 54.9 °F 39.0 °F 29.97 in Calm   1.2 mph 55 % 0.00 in
23:04 54.9 °F 39.5 °F 29.97 in Calm     56 % 0.00 in
23:09 54.8 °F 39.8 °F 29.97 in Calm     57 % 0.00 in
23:14 54.8 °F 40.3 °F 29.97 in Calm   1.2 mph 58 % 0.00 in
23:19 54.7 °F 40.2 °F 29.96 in Calm     58 % 0.00 in
23:25 54.6 °F 40.1 °F 29.96 in Calm     58 % 0.00 in
23:30 54.5 °F 40.5 °F 29.96 in Calm     59 % 0.00 in
23:35 54.4 °F 40.8 °F 29.96 in Calm     60 % 0.00 in
23:40 54.3 °F 40.7 °F 29.95 in Calm     60 % 0.00 in
23:45 54.1 °F 40.1 °F 29.95 in Calm     59 % 0.00 in
23:50 54.0 °F 40.4 °F 29.95 in Calm     60 % 0.00 in
23:55 53.9 °F 40.7 °F 29.95 in Calm     61 % 0.00 in
Crab Meadow Weather
Compliments of Weather Underground - 3 mb

Script developed by  Jim McMurry - jmcmurry@mwt.net Adapted for the template by  Wim van der Kuil - Leuven-Template.eu

Humidity: Humidity is the amount of water vapor in the air. The term "humidity" refers to relative humidity. Relative humidity is defined as the amount of water vapor in a sample of air compared to the maximum amount of water vapor the air can hold at any specific temperature in a form of 0 to 100%. Relative humidity is important in forecasting weather. Humidity indicates the likelihood of precipitation, dew, or fog. High humidity makes people feel hotter outside in the summer because it reduces the effectiveness of sweating to cool the body by preventing the evaporation of perspiration from the skin.